Powrót do katalogu

STARLINK-35359

AktywnyŁącznośćSSO
NORAD 65670·PAYLOAD·🇺🇸 United States

Wystrzelony Sep 19, 2025 z Vandenberg Space Force Base

Loading…

Następne Przeloty (najbliższe 24 godziny)

TLE

ŚwieżeSource: CelesTrak SupGP

Epoka: Sep 14, 2026, 23:03 UTC

1 65670C 25211U   26257.96090278  .00058767  00000+0  18246-2 0  2570
2 65670  97.2833 298.3250 0000927  90.8857  59.4638 15.33404110    10

Śledź STARLINK-35359 w czasie rzeczywistym z AllMySat

Download on the App Store